FW2527 Weather Reports


time (UTC)temp
F
wind
direction
speed
knots
gust
knots
rain 1hr
in
rain 24hr
in
rain mn
in
humidity
%
barometer
mb
20260506081001 47 0.0 0.0 0.01 0.20 0.20 94 1007.1
20260506080551 47 0.0 0.0 0.01 0.20 0.20 94 1007.1
20260506073013 47 0.0 0.0 0.00 0.37 0.19 94 1007.0
20260506072501 47 0.0 0.0 0.00 0.37 0.19 93 1006.9
20260506072054 47 0.0 0.0 0.00 0.37 0.19 94 1007.0
20260506071510 48 0.0 0.0 0.01 0.37 0.19 94 1006.9
20260506071101 48 0.0 0.0 0.01 0.37 0.19 94 1006.8
20260506070549 48 0.0 0.0 0.01 0.37 0.19 94 1006.8
20260506062041 48 0.0 0.0 0.02 0.38 0.19 94 1006.8
20260506061501 48 0.0 0.0 0.01 0.37 0.18 94 1006.8
20260506061051 47 0.0 0.0 0.01 0.37 0.18 94 1006.8
20260506060539 47 0.0 0.0 0.01 0.37 0.18 94 1006.7
20260506051051 47 0.0 0.0 0.01 0.36 0.17 94 1006.5
20260506050539 47 0.0 0.0 0.01 0.36 0.17 93 1006.5
20260506050104 47 0.0 0.0 0.01 0.36 0.17 94 1006.5
20260506045040 47 0.0 0.0 0.02 0.37 0.17 93 1006.5
20260506044506 47 0.0 0.0 0.02 0.37 0.17 93 1006.6
20260506044056 47 0.0 0.0 0.02 0.37 0.17 93 1006.6
20260506043544 47 0.0 0.0 0.06 0.37 0.17 93 1006.5
20260506043005 47 0.0 0.0 0.07 0.37 0.17 93 1006.6
20260506042555 47 0.0 0.0 0.07 0.37 0.17 93 1006.6
20260506042044 47 0.0 0.0 0.06 0.36 0.17 93 1006.5
20260506041607 47 0.0 0.0 0.07 0.36 0.17 93 1006.5
20260506041043 47 0.0 0.0 0.07 0.36 0.17 93 1006.6
20260506040534 47 0.0 0.0 0.08 0.36 0.17 93 1006.6
20260506040058 47 0.0 0.0 0.08 0.36 0.17 93 1006.6
20260506035541 47 0.0 0.0 0.08 0.36 0.17 93 1006.8
20260506035029 47 0.0 0.0 0.08 0.35 0.16 93 1006.8
20260506034552 47 0.0 0.0 0.08 0.35 0.16 93 1006.7
20260506034039 47 0.0 0.0 0.09 0.35 0.16 93 1006.7
20260506033528 47 0.0 0.0 0.04 0.31 0.11 93 1006.8
20260506033052 47 0.0 0.0 0.03 0.30 0.10 93 1006.9
20260506032537 47 0.0 0.0 0.04 0.30 0.10 93 1006.8
20260506032025 47 0.0 0.0 0.04 0.30 0.10 93 1007.0
20260506031548 47 0.0 0.0 0.04 0.28 0.09 93 1007.0
20260506031037 47 0.0 0.0 0.04 0.28 0.09 93 1007.0
20260506030526 47 0.0 0.0 0.03 0.28 0.09 93 1007.0
20260506030044 47 0.0 0.0 0.04 0.28 0.09 93 1007.1
20260506025534 47 0.0 0.0 0.04 0.31 0.09 93 1007.0
20260506025020 48 0.0 0.0 0.03 0.30 0.08 93 1006.9
20260506024542 48 0.0 0.0 0.04 0.30 0.08 93 1006.9
20260506024030 48 0.0 0.0 0.03 0.28 0.07 93 1007.0
20260506023518 48 0.0 0.0 0.04 0.28 0.07 93 1007.0
20260506023051 47 0.0 0.0 0.03 0.28 0.06 93 1007.1
20260506022528 47 0.0 0.0 0.03 0.28 0.06 93 1007.0
20260506022017 47 0.0 0.0 0.04 0.28 0.06 93 1007.1
20260506021539 48 0.0 0.0 0.03 0.28 0.06 93 1007.1
20260506021027 48 0.0 0.0 0.03 0.28 0.06 93 1007.2
20260506020514 48 0.0 0.0 0.03 0.28 0.06 93 1007.1
20260506020106 47 0.0 0.0 0.03 0.28 0.05 93 1007.3
20260506015524 48 0.0 0.0 0.03 0.28 0.05 93 1007.4
20260506015016 48 0.0 0.0 0.03 0.28 0.05 92 1007.3
20260506014533 48 0.0 0.0 0.02 0.27 0.04 92 1007.4
20260506014020 48 0.0 0.0 0.02 0.27 0.04 92 1007.3
20260506013511 48 0.0 0.0 0.02 0.26 0.03 92 1007.4
20260506013031 48 0.0 0.0 0.02 0.26 0.03 92 1007.5
20260506012520 48 0.0 0.0 0.02 0.26 0.03 92 1007.4
20260506012007 48 0.0 0.0 0.02 0.25 0.02 92 1007.4
20260506011530 48 0.0 0.0 0.02 0.25 0.02 92 1007.5
20260506011016 48 0.0 0.0 0.02 0.25 0.02 92 1007.5
20260506010505 48 0.0 0.0 0.02 0.25 0.02 92 1007.6
20260506010035 48 0.0 0.0 0.01 0.32 0.02 92 1007.6
20260506005523 48 0.0 0.0 0.01 0.32 0.02 92 1007.6
20260506005012 48 0.0 0.0 0.01 0.32 0.02 92 1007.6
20260506004540 48 0.0 0.0 0.01 0.32 0.02 91 1007.7
20260506004023 48 0.0 0.0 0.02 0.32 0.02 91 1007.7
20260506003508 48 0.0 0.0 0.02 0.32 0.02 91 1007.7
20260506003039 48 0.0 0.0 0.02 0.32 0.02 91 1007.7
20260506002527 48 0.0 0.0 0.02 0.32 0.02 91 1007.6
20260506002015 48 0.0 0.0 0.01 0.31 0.01 91 1007.7
20260506001545 48 0.0 0.0 0.01 0.31 0.01 91 1007.8
20260506001025 48 0.0 0.0 0.01 0.31 0.01 90 1007.8
20260506000513 48 0.0 0.0 0.01 0.31 0.01 90 1007.9
20260506000052 48 0.0 0.0 0.01 0.39 0.01 90 1007.9
20260505235522 48 0.0 0.0 0.01 0.39 0.01 90 1008.0
20260505235011 48 0.0 0.0 0.01 0.39 0.01 90 1008.0
20260505234536 48 0.0 0.0 0.01 0.39 0.01 89 1008.1
20260505234022 48 0.0 0.0 0.00 0.38 0.00 89 1008.1
20260505233507 48 0.0 0.0 0.00 0.38 0.00 89 1008.1
20260505233028 48 0.0 0.0 0.00 0.38 0.00 89 1008.2
20260505232516 48 0.0 0.0 0.00 0.38 0.00 89 1008.2
20260505232004 48 0.0 0.0 0.00 0.38 0.00 89 1008.2
20260505231529 49 0.0 0.0 0.00 0.38 0.00 89 1008.3
20260505231013 49 0.0 0.0 0.00 0.38 0.00 88 1008.4
20260505230502 49 0.0 0.0 0.00 0.38 0.00 88 1008.3
20260505230038 49 0.0 0.0 0.00 0.63 0.00 88 1008.3
20260505225511 49 0.0 0.0 0.00 0.63 0.00 88 1008.3
20260505225102 49 0.0 0.0 0.00 0.63 0.00 88 1008.3
20260505224532 49 0.0 0.0 0.00 0.63 0.00 88 1008.3
20260505224018 49 0.0 0.0 0.00 0.63 0.00 88 1008.4
20260505223506 49 0.0 0.0 0.00 0.63 0.00 88 1008.5
20260505223034 49 0.0 0.0 0.00 0.63 0.00 88 1008.5
20260505222518 49 0.0 0.0 0.00 0.63 0.00 88 1008.4
20260505222005 49 0.0 0.0 0.00 0.63 0.00 88 1008.5
20260505221541 49 0.0 0.0 0.00 0.63 0.00 87 1008.5
20260505221022 49 0.0 0.0 0.00 0.63 0.00 88 1008.5
20260505220510 50 0.0 0.0 0.00 0.63 0.00 88 1008.5
20260505220031 50 0.0 0.0 0.00 0.66 0.63 88 1008.6
20260505215519 50 0.0 0.0 0.00 0.66 0.63 87 1008.5
20260505215007 50 0.0 0.0 0.00 0.66 0.63 87 1008.7
20260505214528 50 0.0 0.0 0.00 0.66 0.63 87 1008.6
20260505214017 50 0.0 0.0 0.00 0.66 0.63 87 1008.6
20260505213504 50 0.0 0.0 0.00 0.66 0.63 87 1008.6
20260505213028 50 0.0 0.0 0.00 0.66 0.63 87 1008.7
20260505212513 50 0.0 0.0 0.00 0.66 0.63 87 1008.8
20260505212002 50 0.0 0.0 0.00 0.66 0.63 87 1008.8
20260505211530 50 0.0 0.0 0.00 0.66 0.63 87 1008.7
20260505211011 50 0.0 0.0 0.00 0.66 0.63 87 1008.8
20260505210601 50 0.0 0.0 0.00 0.66 0.63 87 1008.8
20260505210021 50 0.0 0.0 0.00 0.67 0.63 87 1008.8
20260505205513 50 0.0 0.0 0.00 0.67 0.63 87 1008.8
20260505205100 50 0.0 0.0 0.00 0.67 0.63 87 1008.9
20260505204518 50 0.0 0.0 0.00 0.67 0.63 87 1008.9
20260505204006 50 0.0 0.0 0.00 0.67 0.63 87 1008.8
20260505203557 50 0.0 0.0 0.00 0.67 0.63 87 1008.8
20260505203021 50 0.0 0.0 0.00 0.67 0.63 87 1008.8
20260505202509 50 0.0 0.0 0.00 0.67 0.63 87 1008.8
20260505202100 50 0.0 0.0 0.00 0.67 0.63 87 1008.8
20260505201518 50 0.0 0.0 0.00 0.67 0.63 87 1008.9
20260505201007 50 0.0 0.0 0.00 0.67 0.63 87 1008.8
20260505200557 50 0.0 0.0 0.00 0.67 0.63 87 1008.8
20260505200016 50 0.0 0.0 0.00 0.67 0.63 87 1008.9
20260505195504 50 0.0 0.0 0.00 0.67 0.63 87 1008.8
20260505195055 51 0.0 0.0 0.00 0.67 0.63 88 1008.9
20260505194513 51 0.0 0.0 0.00 0.67 0.63 88 1008.8
20260505194002 51 0.0 0.0 0.00 0.67 0.63 88 1008.9
20260505193552 51 0.0 0.0 0.00 0.67 0.63 88 1008.8
20260505193011 51 0.0 0.0 0.00 0.67 0.63 88 1008.8
20260505192602 51 0.0 0.0 0.00 0.67 0.63 88 1008.8
20260505192049 51 0.0 0.0 0.00 0.67 0.63 88 1008.7
20260505191509 51 0.0 0.0 0.00 0.67 0.63 88 1008.7
20260505191058 51 0.0 0.0 0.00 0.67 0.63 88 1008.7
20260505190546 51 0.0 0.0 0.00 0.67 0.63 88 1008.8
20260505190003 51 0.0 0.0 0.00 0.67 0.63 88 1008.8
20260505185550 51 0.0 0.0 0.00 0.67 0.63 88 1008.8
20260505185038 51 0.0 0.0 0.00 0.67 0.63 88 1008.7
20260505184507 51 0.0 0.0 0.00 0.67 0.63 88 1008.6
20260505184058 51 0.0 0.0 0.00 0.67 0.63 88 1008.8
20260505183546 51 0.0 0.0 0.00 0.67 0.63 88 1008.7
20260505183006 51 0.0 0.0 0.00 0.67 0.63 88 1008.5
20260505182555 51 0.0 0.0 0.00 0.67 0.63 88 1008.5
20260505182043 51 0.0 0.0 0.00 0.67 0.63 88 1008.4
20260505181502 51 0.0 0.0 0.00 0.67 0.63 88 1008.7
20260505181055 51 0.0 0.0 0.00 0.67 0.63 88 1008.8
20260505180540 51 0.0 0.0 0.00 0.67 0.63 88 1008.8
20260505180009 52 0.0 0.0 0.00 0.69 0.63 88 1008.8
20260505175559 52 0.0 0.0 0.00 0.69 0.63 88 1008.8
20260505175047 52 0.0 0.0 0.00 0.69 0.63 88 1008.8
20260505174506 52 0.0 0.0 0.00 0.69 0.63 88 1008.8
20260505174057 52 0.0 0.0 0.00 0.69 0.63 88 1008.7
20260505173544 52 0.0 0.0 0.00 0.69 0.63 88 1008.8
20260505173014 52 0.0 0.0 0.00 0.69 0.63 88 1008.7
20260505172501 52 0.0 0.0 0.00 0.69 0.63 88 1008.7
20260505172051 52 0.0 0.0 0.00 0.69 0.63 88 1008.9
20260505171516 52 0.0 0.0 0.00 0.69 0.63 88 1009.0
20260505171100 52 0.0 0.0 0.00 0.69 0.63 88 1009.0
20260505170549 52 0.0 0.0 0.00 0.69 0.63 88 1009.1
20260505170007 52 0.0 0.0 0.00 0.70 0.63 88 1009.1
20260505165557 52 0.0 0.0 0.00 0.70 0.63 88 1009.1
20260505165047 52 0.0 0.0 0.00 0.70 0.63 88 1009.0
20260505164505 52 0.0 0.0 0.00 0.70 0.63 88 1009.1
20260505164056 52 0.0 0.0 0.00 0.70 0.63 88 1009.1
20260505163546 52 0.0 0.0 0.00 0.70 0.63 88 1009.2
20260505163013 52 0.0 0.0 0.00 0.70 0.63 88 1009.2
20260505162601 52 0.0 0.0 0.00 0.70 0.63 88 1009.2
20260505162049 52 0.0 0.0 0.00 0.70 0.63 88 1009.2
20260505161508 52 0.0 0.0 0.00 0.70 0.63 88 1009.2
20260505161059 52 0.0 0.0 0.00 0.70 0.63 87 1009.2
20260505160546 52 0.0 0.0 0.00 0.70 0.63 87 1009.3
20260505153001 52 0.0 0.0 0.00 0.70 0.63 87 1009.3
20260505152550 52 0.0 0.0 0.00 0.70 0.63 88 1009.2
20260505152038 52 0.0 0.0 0.00 0.70 0.63 88 1009.4
20260505151507 52 0.0 0.0 0.00 0.70 0.63 88 1009.3
20260505151101 52 0.0 0.0 0.00 0.70 0.63 88 1009.3
20260505150546 52 0.0 0.0 0.00 0.70 0.63 88 1009.4
20260505140546 52 0.0 0.0 0.00 0.72 0.63 88 1009.7
20260505124514 51 0.0 0.0 0.00 0.72 0.63 91 1010.3
20260505124002 51 0.0 0.0 0.00 0.72 0.63 91 1010.4
20260505123549 51 0.0 0.0 0.00 0.72 0.63 91 1010.5
20260505123111 51 0.0 0.0 0.00 0.72 0.63 92 1010.4
20260505122550 51 0.0 0.0 0.00 0.72 0.63 92 1010.4
20260505122038 51 0.0 0.0 0.00 0.72 0.63 92 1010.5
20260505121601 51 0.0 0.0 0.00 0.72 0.63 92 1010.5
20260505121050 51 0.0 0.0 0.00 0.72 0.63 92 1010.5
20260505120539 51 0.0 0.0 0.00 0.72 0.63 93 1010.6
20260505120121 51 0.0 0.0 0.00 0.72 0.63 93 1010.6
20260505115546 51 0.0 0.0 0.00 0.72 0.63 93 1010.8
20260505115034 50 0.0 0.0 0.00 0.72 0.63 93 1010.7
20260505114557 50 0.0 0.0 0.00 0.72 0.63 93 1010.8
20260505114044 50 0.0 0.0 0.00 0.72 0.63 93 1011.0
20260505113531 50 0.0 0.0 0.00 0.72 0.63 93 1010.8
20260505113055 50 0.0 0.0 0.00 0.72 0.63 93 1010.8
20260505112542 50 0.0 0.0 0.00 0.72 0.63 93 1010.8
20260505112031 50 0.0 0.0 0.00 0.72 0.63 94 1010.9
20260505111552 50 0.0 0.0 0.00 0.72 0.63 94 1010.8
20260505111040 50 0.0 0.0 0.00 0.72 0.63 93 1010.8
20260505110528 49 0.0 0.0 0.00 0.72 0.63 94 1010.9
20260505110108 49 0.0 0.0 0.00 0.72 0.63 94 1010.9
20260505102029 49 0.0 0.0 0.00 0.72 0.63 94 1011.2
20260505101548 48 0.0 0.0 0.00 0.72 0.63 94 1011.2
20260505101036 48 0.0 0.0 0.00 0.72 0.63 94 1011.3
20260505100524 48 0.0 0.0 0.00 0.72 0.63 94 1011.4
20260505100046 48 0.0 0.0 0.00 0.72 0.63 94 1011.4
20260505095533 48 0.0 0.0 0.00 0.72 0.63 94 1011.5
20260505095021 48 0.0 0.0 0.00 0.72 0.63 94 1011.5
20260505094544 48 0.0 0.0 0.00 0.72 0.63 94 1011.4
20260505094032 48 0.0 0.0 0.00 0.72 0.63 94 1011.5
20260505093520 48 0.0 0.0 0.00 0.72 0.63 94 1011.4
20260505093042 48 0.0 0.0 0.00 0.72 0.63 94 1011.4
20260505092530 47 0.0 0.0 0.00 0.72 0.63 94 1011.4
20260505092019 48 0.0 0.0 0.00 0.72 0.63 94 1011.2
20260505091551 47 0.0 0.0 0.00 0.72 0.63 94 1011.3
20260505091027 48 0.0 0.0 0.00 0.72 0.63 94 1011.3
20260505090515 47 0.0 0.0 0.00 0.72 0.63 94 1011.4
20260505090037 47 0.0 0.0 0.00 0.72 0.63 94 1011.5
20260505085524 47 0.0 0.0 0.18 0.72 0.63 94 1011.4
20260505085014 47 0.0 0.0 0.18 0.72 0.63 94 1011.5
20260505084544 47 0.0 0.0 0.18 0.72 0.63 94 1011.4
20260505084131 47 0.0 0.0 0.18 0.72 0.63 94 1011.4
20260505083540 47 0.0 0.0 0.18 0.72 0.63 94 1011.3
20260505083005 47 0.0 0.0 0.18 0.72 0.63 94 1011.4
20260505082601 47 0.0 0.0 0.18 0.72 0.63 94 1011.2
20260505082044 47 0.0 0.0 0.18 0.72 0.63 94 1011.2
20260505081504 47 0.0 0.0 0.18 0.72 0.63 94 1011.2
20260505081056 47 0.0 0.0 0.18 0.72 0.63 94 1011.1